Location: Unspecified
(0.0000°N, 0.0000°E)
Time: 04:22:28
(UTC+00:00)

Tansei-3 - Visible Passes

Search period start: 14 May 2026 00:00
Search period end: 24 May 2026 00:00
Orbit: 795 x 3805 km, 65.8° (Epoch: 13 May)

Date Brightness Start Highest point End Pass type
(mag) Time Alt. Az. Time Alt. Az. Time Alt. Az.
14 May 11.4 01:12:55 35° NNE 01:12:55 35° NNE 01:21:39 10° NNE visible
14 May 11.6 03:27:04 19° NW 03:27:04 19° NW 03:36:37 10° NNW visible
15 May 11.2 01:48:28 39° N 01:48:28 39° N 01:58:40 10° N visible
16 May 11.9 00:09:49 20° NE 00:09:49 20° NE 00:14:33 10° NE visible
16 May 11.4 02:23:58 31° NNW 02:23:58 31° NNW 02:34:19 10° N visible
17 May 11.6 00:45:18 31° NNE 00:45:18 31° NNE 00:52:58 10° NNE visible
17 May 11.8 02:59:26 18° NW 02:59:26 18° NW 03:07:53 10° NNW visible
18 May 11.4 01:20:44 35° N 01:20:44 35° N 01:29:58 10° N visible
18 May 12.0 23:42:00 18° NE 23:42:00 18° NE 23:45:53 10° NE visible
19 May 11.6 01:56:08 29° NNW 01:56:08 29° NNW 02:05:37 10° N visible
20 May 11.7 00:17:22 28° NNE 00:17:22 28° NNE 00:24:17 10° NNE visible
20 May 11.9 02:31:29 18° NW 02:31:29 18° NW 02:39:10 10° NNW visible
21 May 11.6 00:52:41 32° N 00:52:41 32° N 01:01:16 10° N visible
21 May 12.1 23:13:50 17° NE 23:13:50 17° NE 23:17:13 10° NE visible
22 May 11.7 01:27:57 28° NNW 01:27:57 28° NNW 01:36:54 10° N visible
22 May 11.8 23:49:04 27° NNE 23:49:04 27° NNE 23:55:36 10° NNE visible
23 May 12.0 02:03:11 18° NW 02:03:11 18° NW 02:10:27 10° NNW visible
